Flag for Canada Weather past 2 weeks in Rankin Inlet, Nunavut Territory, Canada

Now
-35 °F

Snow flurries. Sunny.


Feels Like: -67 °F
Forecast: -36 / -26 °F
Wind: 20 mph from Northwest

Location: Rankin Inlet

Current Time: Jan 30, 2015 at 1:34:34 PM

Latest Report: Jan 30, 2015 at 1:00 PM


Visibility: 1 mi

Pressure: 29.89 "Hg

Humidity: 66%

Dew point: -42 °F

Location of Rankin InletLocation

Historic Weather in Rankin Inlet — Graph

°F

Rankin Inlet temperature yesterday

Maximum temperature yesterday: -31 °F (at 1:00 PM)
Minimum temperature yesterday: -36 °F (at 7:00 PM)
Average temperature yesterday: -34 °F

Past Weeks' High & Low Weather Summary

 TemperatureHumidityPressure
High-4 °F (Jan 27, 12:00 AM)84% (Jan 26, 6:00 PM)30.29 "Hg (Jan 26, 6:00 PM)
Low-42 °F (Jan 18, 7:00 AM)58% (Jan 17, 11:00 PM)29.50 "Hg (Jan 27, 4:00 AM)
Average-26 °F68%29.97 "Hg
* Reported Jan 15 12:00 Noon — Jan 30 12:00 Noon, Rankin Inlet, Weather by CustomWeather, © 2014

Note: Actual official high and low records may vary slightly from our data, if they occured in-between our weather recording intervals... More about our weather records

Advertising

Rankin Inlet weather history for previous 24 hours

 ConditionsComfort  
Time TempWeatherWind HumidityBarometerVisibility
12:00 PM
Jan 30
-35 °FSnow flurries. Sunny.21 mph66%29.89 "Hg1 mi
11:00 AM-35 °FSnow flurries. Sunny.15 mph66%29.89 "Hg3 mi
10:00 AM-35 °FSnow flurries. Passing clouds.15 mph59%29.88 "Hg15 mi
9:00 AM-35 °FSnow flurries. Passing clouds.15 mph66%29.88 "Hg12 mi
8:00 AM-35 °FSnow flurries. Clear.14 mph59%29.87 "Hg15 mi
7:00 AM-35 °FSnow flurries. Clear.14 mph66%29.87 "Hg15 mi
6:00 AM-35 °FSnow flurries. Clear.8 mph66%29.88 "Hg15 mi
5:00 AM-35 °FSnow flurries. Clear.13 mph59%29.89 "Hg15 mi
4:00 AM-36 °FSnow flurries. Clear.13 mph66%29.88 "Hg15 mi
3:00 AM-36 °FSnow flurries. Clear.12 mph66%29.90 "Hg15 mi
2:00 AM-36 °FSnow flurries. Clear.12 mph66%29.91 "Hg15 mi
1:00 AM-35 °FSnow flurries. Clear.8 mph59%29.93 "Hg15 mi
12:00 AM-36 °FSnow flurries. Clear.12 mph66%29.94 "Hg15 mi
11:00 PM
Jan 29
-36 °FSnow flurries. Clear.9 mph66%29.96 "Hg15 mi
10:00 PM-36 °FSnow flurries. Clear.12 mph66%29.96 "Hg15 mi
9:00 PM-36 °FSnow flurries. Clear.7 mph59%29.99 "Hg15 mi
8:00 PM-36 °FSnow flurries. Clear.13 mph66%30.00 "Hg10 mi
7:00 PM-36 °FSnow flurries. Clear.7 mph66%30.01 "Hg10 mi
6:00 PM-35 °FSnow flurries. Clear.14 mph59%30.01 "Hg10 mi
5:00 PM-35 °FSnow flurries. Clear.16 mph66%30.02 "Hg10 mi
4:00 PM-33 °FSnow flurries. Clear.15 mph60%30.01 "Hg8 mi
3:00 PM-33 °FSnow flurries. Sunny.15 mph66%30.01 "Hg8 mi
2:00 PM-31 °FSnow flurries. Sunny.17 mph60%30.01 "Hg2 mi
1:00 PM-31 °FSnow flurries. Sunny.16 mph60%30.01 "Hg1 mi
Weather by CustomWeather, © 2014

See weather overviewHow to use our weather pages